CDT,Max TemperatureF,Mean TemperatureF,Min TemperatureF,Max Dew PointF,MeanDew PointF,Min DewpointF,Max Humidity, Mean Humidity, Min Humidity, Max Sea Level PressureIn, Mean Sea Level PressureIn, Min Sea Level PressureIn, Max VisibilityMiles, Mean VisibilityMiles, Min VisibilityMiles, Max Wind SpeedMPH, Mean Wind SpeedMPH, Max Gust SpeedMPH,PrecipitationIn, CloudCover, Events, WindDirDegrees
2013-9-1,90,76,63,71,67,62,100,77,49,29.84,29.79,29.75,10,7,0,9,2,,0.00,3,Fog-Rain,273
2013-9-2,81,70,59,63,60,56,92,71,43,30.01,29.93,29.85,10,10,10,12,4,16,0.00,1,,330
2013-9-3,77,65,54,61,56,53,97,77,47,30.11,30.05,30.01,10,10,10,7,1,,0.00,2,,300
2013-9-4,84,68,53,61,56,53,100,72,34,30.16,30.12,30.06,10,8,0,8,1,,0.00,1,Fog,277
2013-9-5,85,72,61,68,61,52,95,72,52,30.21,30.18,30.13,10,10,10,10,2,,0.00,0,,82
2013-9-6,88,72,56,64,59,51,88,67,44,30.21,30.13,30.03,10,10,10,12,2,16,0.00,1,,183
2013-9-7,88,76,64,67,64,61,93,69,44,30.03,29.97,29.90,10,10,7,12,3,20,0.00,0,Rain-Thunderstorm,194
2013-9-8,86,78,69,71,69,66,94,76,58,30.00,29.95,29.91,10,10,7,12,5,,0.02,3,Rain-Thunderstorm,97
2013-9-9,97,83,69,73,71,68,96,72,40,29.93,29.89,29.84,10,9,4,13,5,18,0.00,0,,190
2013-9-10,96,84,73,71,66,63,80,57,34,30.04,30.00,29.93,10,10,10,17,6,24,0.00,0,,214
2013-9-11,92,82,72,69,66,64,88,63,40,30.08,30.04,30.01,10,10,10,13,6,17,0.00,1,Rain,239
2013-9-12,83,70,58,69,57,46,92,62,29,30.10,30.03,30.00,10,10,10,16,6,23,0.00,1,,314
2013-9-13,70,60,51,52,43,33,88,58,26,30.20,30.14,30.09,10,10,10,12,5,,0.00,0,,30
2013-9-14,73,58,42,46,43,37,96,63,27,30.19,30.12,30.03,10,10,10,9,3,,0.00,0,,164
2013-9-15,64,59,54,61,52,44,97,78,59,30.16,30.04,29.98,10,10,3,9,4,,0.29,6,Rain,181
2013-9-16,70,60,49,56,50,46,97,74,43,30.35,30.28,30.16,10,10,10,12,6,17,0.00,2,,41
2013-9-17,73,58,44,56,51,44,97,76,51,30.32,30.23,30.10,10,9,4,10,3,,0.00,2,,129
2013-9-18,84,72,61,69,62,53,86,70,55,30.10,30.00,29.90,10,10,10,17,5,22,0.00,3,Thunderstorm,176
2013-9-19,91,79,67,71,68,64,95,69,47,29.95,29.89,29.78,10,9,2,14,8,22,0.40,2,Rain-Thunderstorm,203
2013-9-20,72,64,56,67,59,50,98,79,49,29.90,29.87,29.80,10,9,2,15,5,22,0.18,3,Rain-Thunderstorm,269
2013-9-21,70,60,50,52,49,46,94,73,42,29.96,29.91,29.87,10,10,10,10,4,18,0.00,1,,323
2013-9-22,70,56,43,51,47,42,100,73,42,30.06,30.00,29.96,10,9,0,13,2,17,0.00,1,Fog,60
2013-9-23,76,60,44,48,46,42,94,66,32,30.09,30.03,29.98,10,10,2,10,3,,0.00,0,,112
2013-9-24,78,61,45,54,49,43,93,68,38,30.01,29.95,29.89,10,10,7,13,4,17,0.00,0,Rain,99
2013-9-25,78,64,50,54,51,49,95,69,40,29.95,29.92,29.89,10,9,4,10,3,,0.00,0,,49
2013-9-26,82,65,49,55,51,46,99,65,35,30.06,30.01,29.95,10,8,1,12,3,,0.00,0,,107
2013-9-27,84,65,47,54,48,46,95,59,27,30.14,30.08,30.03,10,10,7,13,4,17,0.00,0,,140
2013-9-28,84,68,54,67,58,51,98,72,44,30.05,29.99,29.90,10,9,2,18,6,28,0.64,4,Rain,197
2013-9-29,70,60,51,58,49,41,100,74,36,30.09,30.03,30.00,10,9,0,10,5,,0.00,2,Fog,9
2013-9-30,75,60,44,58,50,44,98,71,39,30.01,29.94,29.87,10,10,4,12,3,,0.00,0,,183